sat.trackr.live / text

‹ back to catalog

STARLINK-36561

NORAD 67537 · 2026-014F

PAYLOAD ACTIVE UNKNOWN

§ Identity

Operator
Country
US
Launch date
2026-01-22
Launch site
AFWTR
Launch vehicle
Mass (kg)
RCS (m²)

Purposes: comms

External: N2YO · Heavens-Above · Gunter

§ Orbital elements

Epoch: 2026-09-19T02:32:36.976128Z

Period
93.91 min
Inclination
97.2856°
Eccentricity
0.0000824
Mean motion
15.33462088 rev/d
Perigee alt
464.9 km
Apogee alt
466.1 km
Semi-major
6,843.6 km
B*
4.6914e-4
RAAN
147.4728°
Arg perigee
107.9287°
Mean anomaly
252.2045°
Rev number
3,842

§ Raw data

STARLINK-365611 67537U 26014F   26262.10598352  .00015109  00000+0  46914-3 0  99942 67537  97.2856 147.4728 0000824 107.9287 252.2045 15.33462088 38425

JSON: /api/v1/satellites/67537 · /tle

For live sub-satellite position, see the globe view (requires WebGL).

§ Visibility from observer

Set your observer location to see the next 7 days of passes ≥ 10°. The values pass through the URL so the page stays shareable.

No JS? Fill the form by hand. The geolocation button needs JavaScript.